[[{"header":{"parameterUnit":"m.s-1","parameterCategory":2,"la1":30.2991,"la2":30.254,"lo1":-89.0895,"lo2":-89.0444,"dy":0.0017,"dx":0.0017,"nx":28,"ny":28,"refTime":"2025-01-28T03:00:00:Z","depth":"0","parameterNumber":2,"parameterNumberName":"U-component_of_CURRENTS"},"data":[0,0,0,0,0,0,0,0,0,0,0,0,0,0,0,0,0,0,0,0,0,0,0,0,0,0,0,0,0,0,0,0,0,0,0,0,0,0,0,0,0,0,0,0,0,0,0,0,0,0,0,0,0,0,0,0,0,0,-0.2258,-0.2259,0,-0.2319,-0.232,-0.2321,-0.2334,-0.2334,-0.2333,-0.2333,-0.2494,-0.2499,-0.2503,0,0,0,0,0,0,0,0,0,0,0,0,0,-0.2187,-0.2188,-0.2258,-0.2259,-0.226,-0.2319,-0.232,-0.2321,-0.2334,-0.2334,-0.2333,-0.2333,-0.2493,-0.2498,-0.2504,0,0,0,0,0,0,0,0,0,0,0,0,0,-0.223,-0.2189,-0.2258,-0.2273,-0.2275,-0.2319,-0.232,-0.2321,-0.2334,-0.2334,-0.2333,-0.2333,-0.2491,-0.2498,-0.2505,-0.2562,0,0,-0.2526,-0.2529,0,0,0,0,0,0,0,0,-0.2228,-0.2233,-0.227,-0.2272,-0.2275,-0.2318,-0.2354,-0.2406,-0.2335,-0.2312,-0.2333,-0.2332,-0.2445,-0.2456,-0.2468,-0.2569,-0.2576,-0.2527,-0.2531,-0.2534,-0.2536,0,0,0,0,0,0,0,-0.2225,-0.223,-0.2282,-0.2271,-0.2274,-0.2289,-0.2294,-0.2364,-0.2384,-0.2314,-0.2315,-0.2322,-0.2447,-0.2461,-0.2472,-0.2578,-0.2527,-0.2533,-0.2537,-0.254,-0.268,-0.268,0,0,0,0,0,0,-0.2216,-0.2227,-0.228,-0.2284,-0.2249,-0.2291,-0.2296,-0.2305,-0.2381,-0.2391,-0.2323,-0.2322,-0.2449,-0.2463,-0.2478,-0.2494,-0.2534,-0.2541,-0.2545,-0.2681,-0.268,-0.2679,0,0,0,0,0,0,-0.2214,-0.222,-0.2278,-0.2257,-0.2265,-0.2292,-0.2302,-0.2307,-0.2316,-0.2386,-0.2398,-0.2327,-0.2449,-0.2468,-0.2529,-0.2503,-0.2544,-0.255,-0.2681,-0.268,-0.268,-0.2563,0,0,0,0,0,0,-0.2212,-0.2219,-0.2221,-0.2256,-0.2266,-0.2293,-0.2303,-0.2308,-0.2322,-0.2322,-0.2394,-0.2408,-0.245,-0.2518,-0.2536,-0.2513,-0.2556,-0.2682,-0.2681,-0.268,-0.2568,-0.2558,-0.2551,0,0,0,0,0,-0.2209,-0.2211,-0.2221,-0.2227,-0.2268,-0.2293,-0.2299,-0.2316,-0.2322,-0.2323,-0.2371,-0.2406,-0.2523,-0.2524,-0.2545,-0.2523,-0.2682,-0.2681,-0.268,-0.2571,-0.256,-0.2551,0,0,0,0,0,0,-0.2179,-0.2214,-0.2225,-0.2237,-0.2259,-0.2295,-0.2298,-0.2315,-0.2352,-0.2357,-0.2418,-0.2436,-0.2472,-0.2524,-0.2523,-0.256,-0.2602,-0.2605,-0.2512,-0.2503,-0.2494,-0.2498,-0.2562,0,0,0,0,0,-0.2174,-0.2183,-0.2219,-0.2226,-0.2237,-0.2269,-0.2281,-0.2296,-0.2334,-0.2348,-0.2393,-0.2444,-0.2486,-0.2515,-0.2564,-0.2604,-0.2623,-0.2599,-0.259,-0.2583,-0.26,-0.2593,-0.2584,-0.2676,-0.2676,-0.2676,0,0,-0.2164,-0.2184,-0.2189,-0.222,-0.2239,-0.2258,-0.2274,-0.229,-0.2303,-0.2365,-0.2393,-0.2425,-0.2491,-0.2515,-0.2536,-0.2556,-0.2559,-0.2581,-0.2574,-0.2597,-0.2591,-0.2581,-0.2573,-0.2675,-0.2675,-0.2675,0,0,-0.2151,-0.2165,-0.2173,-0.2193,-0.2222,-0.2243,-0.2247,-0.2281,-0.2289,-0.2327,-0.2356,-0.237,-0.2455,-0.2469,-0.2496,-0.248,-0.2514,-0.2493,-0.2457,-0.2447,-0.2439,-0.2433,-0.2405,-0.2397,-0.2488,-0.2487,-0.2487,0,-0.2138,-0.2156,-0.2177,-0.2194,-0.221,-0.2236,-0.2252,-0.2267,-0.2312,-0.2323,-0.2324,-0.2392,-0.2427,-0.2451,-0.2429,-0.2457,-0.2461,-0.2483,-0.2433,-0.2428,-0.2423,-0.2397,-0.2389,-0.2482,-0.2482,-0.2483,-0.2484,0,-0.2139,-0.2154,-0.2158,-0.2189,-0.2207,-0.2221,-0.2251,-0.2261,-0.2273,-0.2289,-0.2305,-0.2332,-0.2373,-0.2362,-0.2395,-0.2376,-0.239,-0.2417,-0.2451,-0.2406,-0.2382,-0.2376,-0.2473,-0.2476,-0.2477,-0.2479,0,0,-0.2108,-0.2152,-0.2152,-0.2168,-0.2207,-0.2221,-0.224,-0.2264,-0.2274,-0.2281,-0.229,-0.2303,-0.2304,-0.2335,-0.2349,-0.2329,-0.2263,-0.2356,-0.2358,-0.2314,-0.223,-0.2126,-0.211,-0.2282,-0.2281,-0.228,-0.2211,0,-0.2102,-0.2128,-0.2155,-0.2176,-0.2193,-0.2224,-0.2241,-0.2263,-0.2276,-0.2287,-0.2284,-0.2301,-0.2299,-0.2303,-0.2279,-0.2291,-0.2252,-0.2279,-0.2296,-0.2297,-0.2197,-0.2101,-0.1998,-0.1918,-0.2206,-0.2205,-0.2204,0,-0.2092,-0.2114,-0.2136,-0.2175,-0.2185,-0.22,-0.223,-0.225,-0.2272,-0.2282,-0.2285,-0.2299,-0.2279,-0.2277,-0.2242,-0.2265,-0.2239,-0.2226,-0.2224,-0.2173,-0.2182,-0.2021,-0.1898,-0.1874,-0.2197,-0.2197,-0.2198,0,-0.2054,-0.2096,-0.211,-0.2125,-0.2175,-0.2186,-0.2209,-0.224,-0.225,-0.2276,-0.2277,-0.2279,-0.2267,-0.2248,-0.2212,-0.2234,-0.2163,-0.2194,-0.2067,-0.2059,-0.2,-0.1988,-0.1849,-0.2149,-0.2149,-0.215,-0.215,0,-0.2033,-0.2041,-0.2091,-0.2099,-0.211,-0.216,-0.2169,-0.2197,-0.2228,-0.2227,-0.2264,-0.2249,-0.2259,-0.2224,-0.2203,-0.2098,-0.215,-0.2038,-0.2026,-0.1951,-0.1936,-0.1941,-0.1976,-0.2147,-0.2148,-0.2148,-0.2149,0,-0.1975,-0.2014,-0.2027,-0.2077,-0.2089,-0.2093,-0.2134,-0.2139,-0.2183,-0.2182,-0.2188,-0.2215,-0.2163,-0.2145,-0.2105,-0.2058,-0.1942,-0.1946,-0.1842,-0.1817,-0.1664,-0.1698,-0.159,-0.1548,-0.179,-0.1787,-0.1784,0,-0.1944,-0.1946,-0.1987,-0.1988,-0.2005,-0.2024,-0.2032,-0.2097,-0.2106,-0.2144,-0.2133,-0.2106,-0.2047,-0.1941,-0.1866,-0.1774,-0.1804,-0.1633,-0.1644,-0.1607,-0.1638,-0.1676,-0.1654,-0.1513,-0.1509,-0.1505,-0.1502,0,-0.187,-0.1883,-0.1892,-0.1898,-0.1906,-0.1917,-0.1941,-0.1944,-0.2009,-0.2004,-0.1982,-0.1941,-0.1845,-0.1695,-0.1583,-0.1532,-0.1575,-0.1549,-0.1547,-0.1422,-0.1423,-0.1393,-0.161,-0.1468,-0.1471,-0.1474,-0.1476,-0.1477,-0.1792,-0.1779,-0.1788,-0.1782,-0.1797,-0.1789,-0.1753,-0.1789,-0.1773,-0.1743,-0.1785,-0.1684,-0.1582,-0.1394,-0.1336,-0.12,-0.1299,-0.1168,-0.1214,-0.1258,-0.1198,-0.1316,-0.1141,-0.1142,-0.1143,-0.1144,-0.1145,0,-0.1681,-0.1678,-0.1671,-0.1657,-0.1623,-0.1672,-0.1668,-0.1614,-0.1548,-0.155,-0.1491,-0.1354,-0.1183,-0.1121,-0.0971,-0.0898,-0.091,-0.0891,-0.0945,-0.0941,-0.1058,-0.1025,-0.0772,-0.0772,-0.0772,-0.0772,-0.0772,-0.0772,-0.1621,-0.1573,-0.1574,-0.148,-0.1469,-0.1378,-0.1347,-0.1295,-0.1268,-0.1151,-0.109,-0.107,-0.0981,-0.095,-0.0815,-0.0764,-0.078,-0.0728,-0.0791,-0.0904,-0.0935,-0.0965,-0.0939,-0.0672,-0.0672,-0.0626,-0.0626,-0.0625]},{"header":{"parameterUnit":"m.s-1","parameterCategory":2,"la1":30.2991,"la2":30.254,"lo1":-89.0895,"lo2":-89.0444,"dy":0.0017,"dx":0.0017,"nx":28,"ny":28,"refTime":"2025-01-28T03:00:00:Z","depth":"0","parameterNumber":3,"parameterNumberName":"V-component_of_CURRENTS"},"data":[0,0,0,0,0,0,0,0,0,0,0,0,0,0,0,0,0,0,0,0,0,0,0,0,0,0,0,0,0,0,0,0,0,0,0,0,0,0,0,0,0,0,0,0,0,0,0,0,0,0,0,0,0,0,0,0,0,0,-0.0572,-0.0571,0,-0.0509,-0.0508,-0.0508,-0.0452,-0.0452,-0.0451,-0.0451,-0.0378,-0.0377,-0.0376,0,0,0,0,0,0,0,0,0,0,0,0,0,-0.0597,-0.0597,-0.0572,-0.0571,-0.0571,-0.0509,-0.0508,-0.0507,-0.0452,-0.0452,-0.0451,-0.045,-0.0379,-0.0377,-0.0375,0,0,0,0,0,0,0,0,0,0,0,0,0,-0.0564,-0.0597,-0.0572,-0.0537,-0.0533,-0.051,-0.0508,-0.0507,-0.0452,-0.0452,-0.0451,-0.045,-0.0379,-0.0377,-0.0375,-0.0378,0,0,-0.0369,-0.0368,0,0,0,0,0,0,0,0,-0.0566,-0.0563,-0.0542,-0.0539,-0.0535,-0.0489,-0.0491,-0.0464,-0.0453,-0.0482,-0.0451,-0.045,-0.0416,-0.0411,-0.0399,-0.0375,-0.0372,-0.0369,-0.0367,-0.0366,-0.0366,0,0,0,0,0,0,0,-0.0569,-0.0565,-0.0546,-0.0542,-0.0537,-0.0507,-0.0502,-0.0485,-0.0453,-0.0479,-0.0475,-0.047,-0.0413,-0.0401,-0.0397,-0.0371,-0.0369,-0.0367,-0.0365,-0.0365,-0.0317,-0.0317,0,0,0,0,0,0,-0.0582,-0.0568,-0.0548,-0.0544,-0.055,-0.0508,-0.0502,-0.0503,-0.0453,-0.0445,-0.0471,-0.0468,-0.0405,-0.04,-0.0394,-0.0383,-0.0366,-0.0364,-0.0363,-0.0317,-0.0317,-0.0317,0,0,0,0,0,0,-0.0583,-0.0581,-0.0551,-0.0555,-0.0549,-0.0509,-0.051,-0.0503,-0.0489,-0.0447,-0.0439,-0.0465,-0.0404,-0.0397,-0.0378,-0.038,-0.0363,-0.0361,-0.0317,-0.0317,-0.0317,-0.0367,0,0,0,0,0,0,-0.0584,-0.0582,-0.0587,-0.0556,-0.0549,-0.0544,-0.0511,-0.0502,-0.0487,-0.0483,-0.044,-0.0432,-0.0403,-0.0382,-0.0376,-0.0377,-0.036,-0.0317,-0.0317,-0.0317,-0.0366,-0.0369,-0.0372,0,0,0,0,0,-0.0585,-0.0598,-0.0588,-0.0586,-0.0559,-0.0544,-0.0538,-0.0505,-0.0488,-0.0488,-0.0456,-0.0433,-0.0377,-0.038,-0.0374,-0.0374,-0.0317,-0.0317,-0.0317,-0.0364,-0.0368,-0.0372,0,0,0,0,0,0,-0.0609,-0.0592,-0.0581,-0.0587,-0.0571,-0.0535,-0.0532,-0.0511,-0.0486,-0.048,-0.0438,-0.0429,-0.041,-0.0388,-0.0392,-0.0359,-0.0342,-0.0341,-0.038,-0.0383,-0.0386,-0.04,-0.0358,0,0,0,0,0,-0.0619,-0.0624,-0.0602,-0.0606,-0.0601,-0.0568,-0.0558,-0.0538,-0.0512,-0.0499,-0.0469,-0.0435,-0.0406,-0.0392,-0.0366,-0.0355,-0.0324,-0.0348,-0.0351,-0.0354,-0.036,-0.0319,-0.0319,-0.0317,-0.0317,-0.0317,0,0,-0.0628,-0.0621,-0.0623,-0.0612,-0.0595,-0.0595,-0.056,-0.055,-0.0547,-0.0497,-0.0484,-0.0448,-0.0406,-0.0387,-0.0377,-0.0368,-0.0337,-0.0354,-0.0357,-0.0361,-0.0319,-0.0319,-0.0319,-0.0317,-0.0317,-0.0317,0,0,-0.0654,-0.0645,-0.0659,-0.0652,-0.0636,-0.0616,-0.0618,-0.0589,-0.0571,-0.0558,-0.0515,-0.0482,-0.0447,-0.0411,-0.0389,-0.0396,-0.0355,-0.0386,-0.0413,-0.0374,-0.0373,-0.0373,-0.0329,-0.0325,-0.0388,-0.0388,-0.0388,0,-0.0666,-0.0681,-0.066,-0.0672,-0.067,-0.0631,-0.0644,-0.0623,-0.0591,-0.0578,-0.0562,-0.0492,-0.0457,-0.0422,-0.042,-0.0403,-0.0374,-0.0404,-0.0378,-0.0377,-0.0376,-0.0331,-0.0325,-0.039,-0.039,-0.039,-0.0389,0,-0.0702,-0.0713,-0.0721,-0.0724,-0.0719,-0.0724,-0.0697,-0.0686,-0.066,-0.0633,-0.0596,-0.0543,-0.0501,-0.048,-0.0452,-0.0423,-0.0403,-0.0388,-0.0372,-0.0379,-0.0331,-0.0324,-0.0394,-0.0393,-0.0392,-0.0391,0,0,-0.073,-0.0745,-0.0747,-0.076,-0.0748,-0.075,-0.0745,-0.0727,-0.0717,-0.0678,-0.0658,-0.06,-0.0563,-0.0536,-0.0489,-0.0452,-0.0412,-0.0422,-0.0419,-0.0385,-0.0321,-0.0272,-0.026,-0.0395,-0.0394,-0.0393,-0.029,0,-0.0764,-0.0804,-0.0796,-0.0826,-0.0845,-0.0814,-0.0812,-0.0789,-0.0754,-0.0725,-0.066,-0.0623,-0.0586,-0.056,-0.0519,-0.0434,-0.0397,-0.0441,-0.0314,-0.031,-0.0271,-0.0251,-0.0225,-0.0128,-0.0283,-0.0281,-0.0281,0,-0.0802,-0.0824,-0.0867,-0.0883,-0.0886,-0.0894,-0.088,-0.0873,-0.0818,-0.0788,-0.0739,-0.0684,-0.0616,-0.0586,-0.0459,-0.0489,-0.0417,-0.0352,-0.0347,-0.0281,-0.0248,-0.0145,-0.0109,-0.0018,-0.0269,-0.027,-0.0271,0,-0.0841,-0.0872,-0.0909,-0.0917,-0.0926,-0.0933,-0.0929,-0.0892,-0.0879,-0.0824,-0.0797,-0.0717,-0.0658,-0.0571,-0.0434,-0.0449,-0.0287,-0.0288,-0.0177,-0.0172,-0.0114,-0.0106,0.002,-0.0209,-0.0209,-0.021,-0.021,0,-0.0885,-0.0913,-0.0932,-0.0954,-0.0987,-0.0976,-0.0986,-0.0968,-0.0926,-0.0898,-0.0832,-0.0777,-0.0651,-0.054,-0.044,-0.0273,-0.0289,-0.0174,-0.014,-0.0129,-0.0124,-0.0014,0.0014,-0.0206,-0.0207,-0.0207,-0.0208,0,-0.0925,-0.0939,-0.0982,-0.1003,-0.101,-0.1033,-0.1029,-0.1028,-0.0984,-0.0942,-0.0925,-0.0808,-0.0657,-0.052,-0.0348,-0.0262,-0.0054,-0.0065,-0.0057,-0.0023,0.0146,0.017,0.0325,0.0388,0.0064,0.0066,0.0068,0,-0.0949,-0.0978,-0.1019,-0.1043,-0.1055,-0.1078,-0.1088,-0.1062,-0.1044,-0.0946,-0.0919,-0.0773,-0.0646,-0.0377,-0.0203,-0.0014,0.0046,0.0113,0.0087,0.0171,0.0222,0.023,0.027,0.0149,0.0151,0.0152,0.0154,0,-0.0987,-0.1001,-0.1036,-0.1087,-0.1113,-0.1135,-0.1137,-0.1128,-0.1072,-0.1009,-0.0885,-0.0777,-0.0516,-0.0278,-0.004,0.0069,0.0183,0.0154,0.0242,0.0303,0.0318,0.039,0.0065,0.0169,0.0168,0.0166,0.0166,0.0165,-0.1003,-0.1037,-0.1079,-0.1124,-0.1155,-0.1169,-0.1161,-0.113,-0.1078,-0.0943,-0.0853,-0.0633,-0.0345,0.0001,0.0119,0.0365,0.0327,0.0429,0.0453,0.0454,0.0509,0.022,0.0359,0.0358,0.0358,0.0358,0.0357,0,-0.1017,-0.1057,-0.1107,-0.1155,-0.1181,-0.1191,-0.1172,-0.1121,-0.1028,-0.0879,-0.0729,-0.0346,-0.0057,0.0203,0.052,0.065,0.0663,0.0711,0.0723,0.0752,0.0508,0.0505,0.068,0.068,0.0679,0.0679,0.0679,0.0679,-0.1026,-0.1077,-0.1108,-0.1155,-0.1182,-0.1174,-0.1148,-0.1051,-0.0921,-0.0637,-0.0383,-0.0186,0.0183,0.0599,0.0877,0.0902,0.1,0.0994,0.1051,0.0868,0.0843,0.0819,0.0824,0.1063,0.1063,0.1285,0.1288,0.1289]}],[{"header":{"parameterUnit":"m.s-1","parameterCategory":2,"la1":30.2991,"la2":30.254,"lo1":-89.0895,"lo2":-89.0444,"dy":0.0017,"dx":0.0017,"nx":28,"ny":28,"refTime":"2025-01-28T03:00:00:Z","depth":"2","parameterNumber":2,"parameterNumberName":"U-component_of_CURRENTS"},"data":[0,0,0,0,0,0,0,0,0,0,0,0,0,0,0,0,0,0,0,0,0,0,0,0,0,0,0,0,0,0,0,0,0,0,0,0,0,0,0,0,0,0,0,0,0,0,0,0,0,0,0,0,0,0,0,0,0,0,-0.2036,-0.2036,0,-0.208,-0.208,-0.208,-0.208,-0.208,-0.2079,-0.2079,-0.2056,-0.2056,-0.2055,0,0,0,0,0,0,0,0,0,0,0,0,0,-0.1975,-0.1976,-0.2036,-0.2036,-0.2037,-0.208,-0.208,-0.2081,-0.208,-0.2079,-0.2079,-0.2078,-0.2056,-0.2056,-0.2055,0,0,0,0,0,0,0,0,0,0,0,0,0,-0.2007,-0.1976,-0.2036,-0.2043,-0.2044,-0.208,-0.208,-0.2081,-0.208,-0.2079,-0.2079,-0.2078,-0.2056,-0.2056,-0.2055,-0.2067,0,0,-0.2054,-0.2054,0,0,0,0,0,0,0,0,-0.2005,-0.2009,-0.2041,-0.2043,-0.2044,-0.2075,-0.205,-0.2073,-0.208,-0.2065,-0.2079,-0.2078,-0.2057,-0.2057,-0.2066,-0.2066,-0.2065,-0.2054,-0.2054,-0.2054,-0.2054,0,0,0,0,0,0,0,-0.2003,-0.2007,-0.2052,-0.2042,-0.2044,-0.2052,-0.2056,-0.2055,-0.2062,-0.2066,-0.2067,-0.2074,-0.2057,-0.2066,-0.2065,-0.2065,-0.2054,-0.2054,-0.2054,-0.2054,-0.208,-0.2081,0,0,0,0,0,0,-0.2,-0.2005,-0.205,-0.2053,-0.2024,-0.2054,-0.2058,-0.2065,-0.2064,-0.2064,-0.2075,-0.2074,-0.2067,-0.2065,-0.2064,-0.2064,-0.2054,-0.2054,-0.2054,-0.208,-0.2081,-0.2082,0,0,0,0,0,0,-0.1999,-0.2004,-0.2049,-0.2031,-0.2038,-0.2056,-0.2063,-0.2066,-0.2074,-0.2071,-0.2069,-0.208,-0.2066,-0.2064,-0.2071,-0.2064,-0.2054,-0.2053,-0.2078,-0.208,-0.2081,-0.2073,0,0,0,0,0,0,-0.1997,-0.2003,-0.2005,-0.2031,-0.2039,-0.2062,-0.2064,-0.2067,-0.208,-0.208,-0.2075,-0.2073,-0.2066,-0.2072,-0.2071,-0.2063,-0.2053,-0.2077,-0.2079,-0.2081,-0.2072,-0.2074,-0.2076,0,0,0,0,0,-0.1994,-0.1997,-0.2005,-0.2011,-0.2042,-0.2063,-0.2067,-0.2077,-0.2081,-0.2082,-0.209,-0.2073,-0.2081,-0.2073,-0.2071,-0.2063,-0.2077,-0.2079,-0.2081,-0.2072,-0.2074,-0.2076,0,0,0,0,0,0,-0.1969,-0.1998,-0.2008,-0.2018,-0.2037,-0.2063,-0.2066,-0.208,-0.2089,-0.2088,-0.2086,-0.2084,-0.209,-0.2085,-0.2076,-0.2079,-0.2076,-0.2078,-0.2069,-0.2071,-0.2073,-0.2063,-0.2053,0,0,0,0,0,-0.1967,-0.1976,-0.2006,-0.2013,-0.2022,-0.2047,-0.2058,-0.2068,-0.2083,-0.2086,-0.2087,-0.2091,-0.2099,-0.2092,-0.2099,-0.2097,-0.2083,-0.2093,-0.2094,-0.2096,-0.2089,-0.2078,-0.2077,-0.2088,-0.2088,-0.2088,0,0,-0.196,-0.1977,-0.1982,-0.2008,-0.2023,-0.204,-0.2051,-0.2066,-0.2078,-0.2082,-0.2091,-0.21,-0.2104,-0.2107,-0.2107,-0.2097,-0.2085,-0.2098,-0.2099,-0.2092,-0.2079,-0.2078,-0.2077,-0.2089,-0.2089,-0.2089,0,0,-0.1952,-0.1964,-0.1972,-0.1989,-0.2015,-0.2032,-0.2038,-0.2066,-0.2073,-0.209,-0.21,-0.2104,-0.2113,-0.211,-0.2111,-0.2127,-0.2102,-0.2132,-0.2117,-0.2106,-0.2104,-0.2102,-0.2074,-0.207,-0.2122,-0.2122,-0.2122,0,-0.1943,-0.1958,-0.1976,-0.1991,-0.2005,-0.2029,-0.2043,-0.2057,-0.2084,-0.2089,-0.2089,-0.2113,-0.2111,-0.2114,-0.2119,-0.2126,-0.2115,-0.2104,-0.2105,-0.2103,-0.2101,-0.2073,-0.2069,-0.2121,-0.2121,-0.2121,-0.2121,0,-0.1945,-0.1959,-0.1963,-0.1989,-0.2006,-0.2019,-0.2046,-0.2059,-0.2072,-0.2086,-0.2097,-0.2102,-0.2111,-0.2112,-0.2117,-0.211,-0.2104,-0.2114,-0.2093,-0.2099,-0.207,-0.2065,-0.2121,-0.2121,-0.2121,-0.2121,0,0,-0.192,-0.1958,-0.1959,-0.1972,-0.2007,-0.202,-0.2039,-0.2062,-0.2073,-0.2084,-0.2093,-0.21,-0.2102,-0.2105,-0.2109,-0.2093,-0.2067,-0.2095,-0.2095,-0.2054,-0.2031,-0.1942,-0.1929,-0.2078,-0.2078,-0.2077,-0.2011,0,-0.1917,-0.1939,-0.1962,-0.1982,-0.1996,-0.2024,-0.2041,-0.2063,-0.2078,-0.209,-0.2089,-0.2101,-0.2099,-0.2103,-0.2088,-0.2086,-0.2057,-0.2084,-0.2042,-0.204,-0.195,-0.1921,-0.1787,-0.1709,-0.2006,-0.2005,-0.2005,0,-0.1908,-0.1927,-0.1946,-0.1981,-0.1989,-0.2005,-0.2033,-0.2052,-0.2075,-0.2087,-0.2092,-0.2101,-0.2089,-0.2089,-0.2053,-0.2072,-0.2046,-0.2032,-0.2029,-0.1944,-0.1943,-0.1755,-0.169,-0.1997,-0.1997,-0.1998,-0.1999,0,-0.1874,-0.1912,-0.1925,-0.1937,-0.1982,-0.1993,-0.2016,-0.2046,-0.2057,-0.2083,-0.2088,-0.2088,-0.208,-0.2059,-0.2026,-0.2043,-0.1977,-0.1999,-0.1887,-0.1881,-0.1755,-0.1738,-0.1957,-0.1958,-0.1958,-0.1958,-0.1958,0,-0.1854,-0.1863,-0.1909,-0.1916,-0.1929,-0.1972,-0.1984,-0.2011,-0.2042,-0.2041,-0.2078,-0.2066,-0.2072,-0.2041,-0.2017,-0.1922,-0.1965,-0.1866,-0.1851,-0.1748,-0.1732,-0.1981,-0.1984,-0.1955,-0.1956,-0.1956,-0.1957,0,-0.1803,-0.1839,-0.1852,-0.1898,-0.191,-0.1916,-0.1956,-0.1962,-0.2006,-0.2007,-0.2014,-0.2038,-0.199,-0.1975,-0.1931,-0.1888,-0.1828,-0.1784,-0.1651,-0.1621,-0.1742,-0.1747,-0.165,-0.1646,-0.1643,-0.164,-0.1638,0,-0.1776,-0.1778,-0.1819,-0.1821,-0.1838,-0.1859,-0.1867,-0.1927,-0.1935,-0.1972,-0.1961,-0.194,-0.1883,-0.1786,-0.1716,-0.163,-0.1718,-0.1466,-0.1468,-0.1711,-0.1708,-0.1717,-0.1726,-0.13,-0.1295,-0.1291,-0.1288,0,-0.171,-0.1726,-0.1734,-0.1743,-0.1753,-0.1763,-0.1785,-0.1786,-0.1845,-0.1842,-0.1817,-0.1777,-0.1693,-0.1533,-0.1438,-0.1384,-0.1472,-0.138,-0.1657,-0.14,-0.1376,-0.1375,-0.1396,-0.1253,-0.1256,-0.1259,-0.1261,-0.1262,-0.1643,-0.1633,-0.1643,-0.1639,-0.1655,-0.1644,-0.1607,-0.1637,-0.1618,-0.1582,-0.1624,-0.151,-0.1481,-0.1245,-0.1158,-0.1099,-0.1211,-0.1164,-0.1179,-0.1197,-0.117,-0.1141,-0.0968,-0.097,-0.0971,-0.0973,-0.0974,0,-0.1545,-0.1542,-0.1536,-0.1523,-0.1491,-0.1538,-0.1527,-0.1466,-0.1396,-0.1382,-0.1323,-0.1135,-0.1006,-0.0987,-0.0827,-0.0788,-0.081,-0.076,-0.0795,-0.0829,-0.086,-0.082,-0.0523,-0.0521,-0.052,-0.0519,0,0,-0.1492,-0.1448,-0.1446,-0.1356,-0.1345,-0.1255,-0.122,-0.1156,-0.1112,-0.0994,-0.0923,-0.0958,-0.0951,-0.0744,-0.0686,-0.0576,-0.0703,-0.0542,-0.0903,-0.0978,-0.1008,-0.1086,-0.106,0,0,0,0,0]},{"header":{"parameterUnit":"m.s-1","parameterCategory":2,"la1":30.2991,"la2":30.254,"lo1":-89.0895,"lo2":-89.0444,"dy":0.0017,"dx":0.0017,"nx":28,"ny":28,"refTime":"2025-01-28T03:00:00:Z","depth":"2","parameterNumber":3,"parameterNumberName":"V-component_of_CURRENTS"},"data":[0,0,0,0,0,0,0,0,0,0,0,0,0,0,0,0,0,0,0,0,0,0,0,0,0,0,0,0,0,0,0,0,0,0,0,0,0,0,0,0,0,0,0,0,0,0,0,0,0,0,0,0,0,0,0,0,0,0,-0.0349,-0.0349,0,-0.0288,-0.0287,-0.0286,-0.0233,-0.0232,-0.0232,-0.0232,-0.0098,-0.0095,-0.0092,0,0,0,0,0,0,0,0,0,0,0,0,0,-0.0374,-0.0374,-0.035,-0.0349,-0.0348,-0.0288,-0.0287,-0.0286,-0.0233,-0.0232,-0.0232,-0.0231,-0.0099,-0.0096,-0.0092,0,0,0,0,0,0,0,0,0,0,0,0,0,-0.0341,-0.0374,-0.035,-0.0316,-0.0312,-0.0288,-0.0287,-0.0286,-0.0233,-0.0232,-0.0232,-0.0231,-0.01,-0.0096,-0.0091,-0.0075,0,0,-0.0077,-0.0075,0,0,0,0,0,0,0,0,-0.0343,-0.034,-0.0321,-0.0318,-0.0314,-0.0269,-0.0247,-0.0212,-0.0233,-0.0261,-0.0232,-0.0231,-0.015,-0.0142,-0.013,-0.0069,-0.0063,-0.0076,-0.0074,-0.0072,-0.007,0,0,0,0,0,0,0,-0.0346,-0.0342,-0.0323,-0.0321,-0.0317,-0.0288,-0.0283,-0.024,-0.0207,-0.0259,-0.0255,-0.0251,-0.0148,-0.0135,-0.0126,-0.0061,-0.0077,-0.0072,-0.0069,-0.0068,0.0026,0.0025,0,0,0,0,0,0,-0.036,-0.0345,-0.0325,-0.0322,-0.033,-0.0288,-0.0282,-0.0283,-0.0209,-0.0199,-0.0252,-0.0249,-0.0143,-0.0132,-0.0121,-0.01,-0.0072,-0.0067,-0.0064,0.0026,0.0026,0.0025,0,0,0,0,0,0,-0.0361,-0.0359,-0.0328,-0.0333,-0.0327,-0.0289,-0.0289,-0.0282,-0.0269,-0.0206,-0.0193,-0.0248,-0.0142,-0.0128,-0.009,-0.0094,-0.0065,-0.0061,0.0027,0.0026,0.0025,-0.0055,0,0,0,0,0,0,-0.0362,-0.036,-0.0365,-0.0334,-0.0327,-0.0321,-0.029,-0.0281,-0.0269,-0.0265,-0.0198,-0.0185,-0.014,-0.0097,-0.0085,-0.0087,-0.0057,0.0027,0.0026,0.0026,-0.0052,-0.0058,-0.0064,0,0,0,0,0,-0.0363,-0.0374,-0.0366,-0.0363,-0.0336,-0.0322,-0.0316,-0.0285,-0.027,-0.027,-0.0226,-0.0187,-0.0092,-0.0094,-0.0079,-0.008,0.0027,0.0026,0.0026,-0.0049,-0.0057,-0.0064,0,0,0,0,0,0,-0.0386,-0.0369,-0.0359,-0.0364,-0.0349,-0.0314,-0.0311,-0.0292,-0.0259,-0.0251,-0.019,-0.0175,-0.0145,-0.0102,-0.0105,-0.0055,-0.0026,-0.0024,-0.0088,-0.0095,-0.0101,-0.0106,-0.0053,0,0,0,0,0,-0.0396,-0.04,-0.0379,-0.0383,-0.0378,-0.0347,-0.0337,-0.0319,-0.0286,-0.0271,-0.0227,-0.0178,-0.0138,-0.0109,-0.007,-0.0039,0.0002,-0.003,-0.0036,-0.0041,-0.0037,0.0013,0.0012,0.0023,0.0023,0.0023,0,0,-0.0405,-0.0398,-0.0399,-0.0388,-0.0372,-0.037,-0.0339,-0.0331,-0.0325,-0.0261,-0.0239,-0.02,-0.0136,-0.0108,-0.0089,-0.007,-0.0025,-0.0042,-0.0048,-0.0039,0.0012,0.0011,0.001,0.0022,0.0022,0.0022,0,0,-0.0429,-0.0421,-0.0433,-0.0425,-0.0411,-0.0391,-0.0394,-0.0366,-0.0349,-0.0327,-0.0281,-0.0246,-0.0185,-0.0141,-0.011,-0.0122,-0.0064,-0.0111,-0.0136,-0.0089,-0.0089,-0.0089,-0.0052,-0.0047,-0.0107,-0.0107,-0.0107,0,-0.0441,-0.0452,-0.0434,-0.0442,-0.0438,-0.0406,-0.0415,-0.0394,-0.0358,-0.0341,-0.033,-0.0245,-0.0199,-0.015,-0.0157,-0.0134,-0.0102,-0.0117,-0.0097,-0.0096,-0.0094,-0.0055,-0.005,-0.0111,-0.011,-0.011,-0.011,0,-0.0472,-0.0479,-0.0486,-0.0486,-0.0479,-0.0483,-0.0456,-0.0446,-0.0423,-0.0394,-0.0355,-0.0298,-0.0242,-0.0228,-0.0194,-0.016,-0.0141,-0.0118,-0.0082,-0.01,-0.0058,-0.0051,-0.0117,-0.0115,-0.0114,-0.0113,0,0,-0.0498,-0.0507,-0.0509,-0.0517,-0.0503,-0.0502,-0.0493,-0.0471,-0.0458,-0.0423,-0.0398,-0.034,-0.0308,-0.027,-0.0225,-0.0185,-0.0156,-0.0153,-0.0148,-0.0121,-0.0059,-0.0036,-0.0025,-0.0132,-0.0131,-0.013,-0.0039,0,-0.0526,-0.0558,-0.0548,-0.0569,-0.0582,-0.0552,-0.0546,-0.0519,-0.0486,-0.0455,-0.0392,-0.0355,-0.0322,-0.03,-0.0256,-0.0177,-0.0138,-0.0183,-0.0039,-0.0035,-0.0017,-0.0016,-0.0027,0.0054,-0.0032,-0.003,-0.0029,0,-0.0558,-0.0576,-0.0608,-0.0613,-0.0615,-0.0619,-0.0598,-0.0587,-0.0531,-0.0503,-0.0451,-0.04,-0.0334,-0.0311,-0.0185,-0.0216,-0.0147,-0.0088,-0.0083,-0.0024,0.0003,0.0063,0.0071,-0.0016,-0.0017,-0.0018,-0.0019,0,-0.0593,-0.0613,-0.0642,-0.0646,-0.0647,-0.0651,-0.0644,-0.0603,-0.0589,-0.0532,-0.051,-0.0424,-0.0377,-0.0283,-0.0166,-0.0174,-0.0026,-0.0017,0.0069,0.0072,0.0112,0.0115,0.0069,0.0069,0.0069,0.0068,0.0068,0,-0.0629,-0.065,-0.0663,-0.0681,-0.0708,-0.0691,-0.0697,-0.0675,-0.0634,-0.061,-0.0539,-0.0494,-0.0368,-0.0267,-0.0169,-0.0023,-0.0023,0.007,0.0101,0.0081,0.0081,0.0063,0.0061,0.0072,0.0071,0.007,0.007,0,-0.0664,-0.0674,-0.0708,-0.0723,-0.0729,-0.0748,-0.0745,-0.0742,-0.0699,-0.0664,-0.0649,-0.0538,-0.0404,-0.0272,-0.0105,-0.0022,0.0109,0.016,0.0123,0.0147,0.0173,0.0166,0.0263,0.0265,0.0266,0.0267,0.0268,0,-0.0685,-0.071,-0.0746,-0.0769,-0.0779,-0.08,-0.0812,-0.0782,-0.0769,-0.0682,-0.0663,-0.0534,-0.0422,-0.0175,-0.0011,0.0167,0.0162,0.0255,0.024,0.0175,0.0195,0.0186,0.0177,0.0257,0.0258,0.0258,0.0259,0,-0.0721,-0.0735,-0.0765,-0.0817,-0.0844,-0.0866,-0.0872,-0.0869,-0.0817,-0.0764,-0.0659,-0.0563,-0.0332,-0.0126,0.0092,0.0193,0.0223,0.0275,0.0238,0.0203,0.0176,0.0193,0.0184,0.0265,0.0264,0.0264,0.0264,0.0263,-0.0741,-0.0774,-0.0814,-0.086,-0.0893,-0.0914,-0.0912,-0.0889,-0.0848,-0.0733,-0.0651,-0.0463,-0.0302,0.0037,0.0171,0.0301,0.0296,0.0335,0.033,0.0326,0.0303,0.0279,0.0382,0.0382,0.0383,0.0383,0.0383,0,-0.0761,-0.08,-0.085,-0.0899,-0.0932,-0.0941,-0.0935,-0.0894,-0.0821,-0.0695,-0.0563,-0.0333,-0.0116,0.0056,0.0266,0.0375,0.0355,0.0391,0.0342,0.0336,0.0331,0.0306,0.0388,0.0388,0.0388,0.0388,0,0,-0.0775,-0.0827,-0.0855,-0.0913,-0.0943,-0.095,-0.0934,-0.0853,-0.0744,-0.0585,-0.0429,-0.0266,-0.0071,0.0076,0.02,0.0307,0.0292,0.0315,0.0302,0.0223,0.0217,0.0293,0.0247,0,0,0,0,0]}],[{"header":{"parameterUnit":"m.s-1","parameterCategory":2,"la1":30.2991,"la2":30.254,"lo1":-89.0895,"lo2":-89.0444,"dy":0.0017,"dx":0.0017,"nx":28,"ny":28,"refTime":"2025-01-28T03:00:00:Z","depth":"4","parameterNumber":2,"parameterNumberName":"U-component_of_CURRENTS"},"data":[0,0,0,0,0,0,0,0,0,0,0,0,0,0,0,0,0,0,0,0,0,0,0,0,0,0,0,0,0,0,0,0,0,0,0,0,0,0,0,0,0,0,0,0,0,0,0,0,0,0,0,0,0,0,0,0,0,0,-0.1441,-0.1442,0,-0.1496,-0.1496,-0.1497,-0.153,-0.1531,-0.1531,-0.1531,-0.1523,-0.1523,-0.1522,0,0,0,0,0,0,0,0,0,0,0,0,0,-0.1371,-0.1372,-0.1441,-0.1442,-0.1442,-0.1496,-0.1496,-0.1497,-0.153,-0.1531,-0.1531,-0.1532,-0.1523,-0.1523,-0.1522,0,0,0,0,0,0,0,0,0,0,0,0,0,-0.1409,-0.1372,-0.1441,-0.1467,-0.147,-0.1496,-0.1496,-0.1497,-0.153,-0.1531,-0.1531,-0.1532,-0.1524,-0.1523,-0.1522,-0.1507,0,0,-0.152,-0.1519,0,0,0,0,0,0,0,0,-0.1407,-0.1412,-0.1462,-0.1465,-0.1469,-0.1508,-0.1469,-0.1498,-0.153,-0.1506,-0.1531,-0.1532,-0.1513,-0.1513,-0.1521,-0.1507,-0.1507,-0.152,-0.1519,-0.1519,-0.1519,0,0,0,0,0,0,0,-0.1404,-0.141,-0.1461,-0.1463,-0.1467,-0.1478,-0.1484,-0.1475,-0.1503,-0.1508,-0.1511,-0.1519,-0.1514,-0.1522,-0.1521,-0.1507,-0.152,-0.1519,-0.1518,-0.1518,-0.1542,-0.1543,0,0,0,0,0,0,-0.14,-0.1407,-0.1459,-0.1463,-0.144,-0.1479,-0.1486,-0.1494,-0.1505,-0.1508,-0.1519,-0.1521,-0.1523,-0.1522,-0.1521,-0.1556,-0.1519,-0.1518,-0.1518,-0.1541,-0.1542,-0.1543,0,0,0,0,0,0,-0.1399,-0.1404,-0.1457,-0.1437,-0.1445,-0.148,-0.1489,-0.1495,-0.1526,-0.1515,-0.1516,-0.1548,-0.1523,-0.1522,-0.1537,-0.1554,-0.1518,-0.1517,-0.154,-0.1541,-0.1543,-0.1593,0,0,0,0,0,0,-0.1396,-0.1403,-0.142,-0.1437,-0.1446,-0.1482,-0.1489,-0.1495,-0.153,-0.1534,-0.1539,-0.1538,-0.1523,-0.1539,-0.1537,-0.1552,-0.1516,-0.1538,-0.154,-0.1542,-0.159,-0.1596,-0.1601,0,0,0,0,0,-0.1394,-0.1406,-0.142,-0.1427,-0.1463,-0.1483,-0.1489,-0.1514,-0.1531,-0.1545,-0.1557,-0.1539,-0.155,-0.1539,-0.1536,-0.1552,-0.1537,-0.154,-0.1542,-0.1587,-0.1595,-0.1601,0,0,0,0,0,0,-0.1384,-0.1411,-0.1427,-0.1448,-0.1471,-0.149,-0.1509,-0.1528,-0.155,-0.1561,-0.1552,-0.1551,-0.1574,-0.1557,-0.1545,-0.1566,-0.1541,-0.1543,-0.1576,-0.1583,-0.1589,-0.1575,-0.1516,0,0,0,0,0,-0.139,-0.1408,-0.1433,-0.1453,-0.1466,-0.1494,-0.1512,-0.153,-0.1547,-0.156,-0.1567,-0.1573,-0.1578,-0.1577,-0.1579,-0.1585,-0.1559,-0.1594,-0.16,-0.1605,-0.1593,-0.1582,-0.1585,-0.1552,-0.1551,-0.1551,0,0,-0.1395,-0.1411,-0.1424,-0.1453,-0.1474,-0.1494,-0.1506,-0.1537,-0.1559,-0.1552,-0.1589,-0.1598,-0.1587,-0.1602,-0.1609,-0.1591,-0.1602,-0.1608,-0.1612,-0.1597,-0.1585,-0.1588,-0.1591,-0.1553,-0.1553,-0.1553,0,0,-0.1401,-0.1426,-0.1441,-0.1461,-0.1497,-0.1511,-0.1526,-0.156,-0.1582,-0.1613,-0.162,-0.1638,-0.1646,-0.1642,-0.1639,-0.1674,-0.164,-0.1682,-0.169,-0.1681,-0.1683,-0.1685,-0.1659,-0.1658,-0.1676,-0.1677,-0.1677,0,-0.1409,-0.1429,-0.145,-0.1468,-0.1488,-0.1521,-0.1542,-0.1565,-0.1604,-0.1618,-0.163,-0.166,-0.166,-0.1666,-0.1685,-0.1685,-0.167,-0.1665,-0.1687,-0.1688,-0.1689,-0.1662,-0.166,-0.1679,-0.1679,-0.1679,-0.1678,0,-0.1417,-0.1445,-0.1455,-0.1489,-0.1511,-0.1536,-0.1566,-0.1598,-0.1632,-0.165,-0.1684,-0.1692,-0.1702,-0.1714,-0.171,-0.172,-0.1705,-0.1703,-0.1667,-0.1695,-0.1665,-0.1662,-0.1683,-0.1682,-0.1681,-0.1681,0,0,-0.1403,-0.1454,-0.1461,-0.1482,-0.1526,-0.1543,-0.158,-0.1613,-0.1638,-0.1676,-0.17,-0.1723,-0.1734,-0.173,-0.1735,-0.1728,-0.173,-0.172,-0.1718,-0.1688,-0.1699,-0.1586,-0.1572,-0.1736,-0.1736,-0.1736,-0.1676,0,-0.1408,-0.1442,-0.1468,-0.1507,-0.1526,-0.1566,-0.1594,-0.163,-0.1662,-0.1693,-0.1707,-0.1733,-0.1737,-0.1751,-0.1747,-0.174,-0.1724,-0.1745,-0.168,-0.1677,-0.1569,-0.1565,-0.1735,-0.1674,-0.1673,-0.1673,-0.1672,0,-0.14,-0.1428,-0.1466,-0.1516,-0.1529,-0.1559,-0.1608,-0.1639,-0.1679,-0.1705,-0.1727,-0.1743,-0.1749,-0.1752,-0.1728,-0.1744,-0.1722,-0.1708,-0.1705,-0.1575,-0.1558,-0.1639,-0.1666,-0.1667,-0.1667,-0.1668,-0.1668,0,-0.1365,-0.1422,-0.1454,-0.1473,-0.1533,-0.1563,-0.1598,-0.1645,-0.1667,-0.1714,-0.1729,-0.1743,-0.175,-0.1734,-0.171,-0.1724,-0.1671,-0.1684,-0.1553,-0.1545,-0.1644,-0.1643,-0.1652,-0.1652,-0.1652,-0.1653,-0.1653,0,-0.1339,-0.1368,-0.1446,-0.1462,-0.15,-0.1552,-0.159,-0.1628,-0.1674,-0.1682,-0.1732,-0.1725,-0.1748,-0.1724,-0.1703,-0.1603,-0.166,-0.1537,-0.1516,-0.1668,-0.167,-0.1641,-0.1641,-0.165,-0.1651,-0.1651,-0.1652,0,-0.1285,-0.134,-0.138,-0.1457,-0.1483,-0.1511,-0.158,-0.1596,-0.1655,-0.1667,-0.1681,-0.171,-0.1667,-0.1664,-0.1627,-0.1571,-0.1508,-0.146,-0.1606,-0.1599,-0.1391,-0.1395,-0.1301,-0.1296,-0.1292,-0.1289,-0.1286,0,-0.1254,-0.1272,-0.1363,-0.1386,-0.1425,-0.1477,-0.15,-0.1575,-0.1585,-0.1631,-0.1617,-0.1611,-0.161,-0.1452,-0.1476,-0.1403,-0.139,-0.1351,-0.138,-0.1362,-0.1353,-0.1362,-0.1371,-0.128,-0.1279,-0.1278,-0.1277,0,-0.1189,-0.1237,-0.1268,-0.1317,-0.1356,-0.1386,-0.1429,-0.1424,-0.1487,-0.1561,-0.1495,-0.1455,-0.1399,-0.1357,-0.1305,-0.1264,-0.1376,-0.131,-0.1318,-0.1345,-0.1336,-0.1333,-0.1345,-0.1263,-0.1265,-0.1266,-0.1267,0,-0.1137,-0.1145,-0.1195,-0.1221,-0.1272,-0.1267,-0.1305,-0.1299,-0.1315,-0.1375,-0.1346,-0.134,-0.1375,-0.1282,-0.1239,-0.1181,-0.1167,-0.1134,-0.1152,-0.1167,-0.1151,-0.1122,-0.0945,0,0,0,0,0,-0.1074,-0.1068,-0.1089,-0.1109,-0.1155,-0.1178,-0.1238,-0.1276,-0.1342,-0.1254,-0.1295,-0.1234,-0.1155,-0.116,-0.1069,-0.118,-0.1178,-0.1071,-0.1153,-0.1188,-0.1204,-0.1198,0,0,0,0,0,0,-0.103,-0.1049,-0.1051,-0.1006,-0.0997,-0.1024,-0.1056,-0.1103,-0.1063,-0.1137,-0.1095,-0.1155,-0.1095,-0.1175,-0.104,-0.104,-0.1065,-0.1082,-0.1079,-0.1179,-0.1193,-0.1206,-0.1206,0,0,0,0,0]},{"header":{"parameterUnit":"m.s-1","parameterCategory":2,"la1":30.2991,"la2":30.254,"lo1":-89.0895,"lo2":-89.0444,"dy":0.0017,"dx":0.0017,"nx":28,"ny":28,"refTime":"2025-01-28T03:00:00:Z","depth":"4","parameterNumber":3,"parameterNumberName":"V-component_of_CURRENTS"},"data":[0,0,0,0,0,0,0,0,0,0,0,0,0,0,0,0,0,0,0,0,0,0,0,0,0,0,0,0,0,0,0,0,0,0,0,0,0,0,0,0,0,0,0,0,0,0,0,0,0,0,0,0,0,0,0,0,0,0,-0.0211,-0.0211,0,-0.0171,-0.017,-0.017,-0.0134,-0.0133,-0.0133,-0.0133,-0.0041,-0.0038,-0.0036,0,0,0,0,0,0,0,0,0,0,0,0,0,-0.0223,-0.0223,-0.0211,-0.0211,-0.0211,-0.0171,-0.017,-0.017,-0.0134,-0.0133,-0.0133,-0.0133,-0.0041,-0.0039,-0.0036,0,0,0,0,0,0,0,0,0,0,0,0,0,-0.0202,-0.0223,-0.0211,-0.0189,-0.0187,-0.0171,-0.017,-0.017,-0.0134,-0.0133,-0.0133,-0.0132,-0.0042,-0.0039,-0.0036,-0.0023,0,0,-0.0026,-0.0024,0,0,0,0,0,0,0,0,-0.0203,-0.0202,-0.0193,-0.0191,-0.0188,-0.0158,-0.0141,-0.0119,-0.0134,-0.0152,-0.0133,-0.0132,-0.0077,-0.007,-0.0062,-0.0019,-0.0015,-0.0025,-0.0023,-0.0022,-0.0021,0,0,0,0,0,0,0,-0.0205,-0.0203,-0.0194,-0.0193,-0.019,-0.017,-0.0166,-0.0136,-0.0115,-0.015,-0.0148,-0.0147,-0.0075,-0.0065,-0.0059,-0.0014,-0.0025,-0.0022,-0.002,-0.0019,0.005,0.005,0,0,0,0,0,0,-0.0216,-0.0205,-0.0195,-0.0193,-0.0197,-0.017,-0.0166,-0.0167,-0.0116,-0.0109,-0.0147,-0.0145,-0.0071,-0.0063,-0.0056,-0.0041,-0.0022,-0.0019,-0.0017,0.005,0.005,0.005,0,0,0,0,0,0,-0.0216,-0.0215,-0.0197,-0.0199,-0.0195,-0.0171,-0.0171,-0.0166,-0.016,-0.0114,-0.0106,-0.0147,-0.0071,-0.0061,-0.0033,-0.0037,-0.0017,-0.0014,0.0051,0.005,0.005,-0.001,0,0,0,0,0,0,-0.0217,-0.0216,-0.0222,-0.02,-0.0196,-0.0195,-0.0172,-0.0166,-0.0161,-0.0158,-0.0111,-0.0102,-0.0069,-0.0038,-0.003,-0.0032,-0.0012,0.0051,0.005,0.005,-0.0007,-0.0012,-0.0016,0,0,0,0,0,-0.0217,-0.0227,-0.0222,-0.0221,-0.0204,-0.0196,-0.0192,-0.0171,-0.0161,-0.0163,-0.013,-0.0104,-0.0034,-0.0036,-0.0026,-0.0027,0.0051,0.0051,0.005,-0.0006,-0.0011,-0.0015,0,0,0,0,0,0,-0.0234,-0.0224,-0.0218,-0.0224,-0.0215,-0.019,-0.0191,-0.0178,-0.0154,-0.015,-0.0105,-0.0094,-0.0073,-0.0042,-0.0045,-0.0008,0.0013,0.0015,-0.0033,-0.0038,-0.0042,-0.0048,-0.0009,0,0,0,0,0,-0.0242,-0.0248,-0.0234,-0.024,-0.0237,-0.0216,-0.0211,-0.0199,-0.0175,-0.0165,-0.0135,-0.0098,-0.0067,-0.0046,-0.0017,0.0005,0.0038,0.0011,0.0007,0.0003,0.0005,0.0052,0.0052,0.0049,0.0049,0.0049,0,0,-0.0251,-0.0247,-0.0249,-0.0244,-0.0234,-0.0234,-0.0212,-0.021,-0.0205,-0.0158,-0.0145,-0.0115,-0.0065,-0.0043,-0.003,-0.0017,0.0018,0.0003,-0.0001,0.0004,0.0052,0.0052,0.0052,0.0049,0.0049,0.0049,0,0,-0.0269,-0.0267,-0.0277,-0.0273,-0.0267,-0.0253,-0.0256,-0.0238,-0.0227,-0.0212,-0.0176,-0.0148,-0.0106,-0.0069,-0.0043,-0.005,-0.0009,-0.0044,-0.0063,-0.0019,-0.0018,-0.0017,0.001,0.0014,-0.0041,-0.0041,-0.0041,0,-0.028,-0.029,-0.0279,-0.0287,-0.0285,-0.0265,-0.0272,-0.0258,-0.0234,-0.0221,-0.0216,-0.015,-0.0114,-0.0072,-0.0077,-0.0059,-0.0034,-0.0051,-0.0024,-0.0022,-0.002,0.0008,0.0013,-0.0044,-0.0044,-0.0043,-0.0043,0,-0.0303,-0.0312,-0.0318,-0.032,-0.0317,-0.0322,-0.0304,-0.0299,-0.0285,-0.0264,-0.0233,-0.0188,-0.0144,-0.0133,-0.0107,-0.0074,-0.0063,-0.0041,-0.0015,-0.0024,0.0006,0.0013,-0.0048,-0.0047,-0.0046,-0.0046,0,0,-0.0321,-0.0332,-0.0335,-0.0343,-0.0336,-0.0336,-0.0331,-0.0315,-0.0307,-0.0283,-0.0263,-0.0216,-0.0191,-0.0161,-0.0125,-0.0089,-0.0061,-0.0065,-0.0061,-0.0043,0.0025,0.0013,0.0019,-0.0036,-0.0035,-0.0034,0.0034,0,-0.0342,-0.0368,-0.0362,-0.0381,-0.0391,-0.0372,-0.0369,-0.0351,-0.0328,-0.0306,-0.0255,-0.0226,-0.0201,-0.0184,-0.0144,-0.0079,-0.0044,-0.0082,0.0036,0.0039,0.0026,0.0027,-0.003,0.0039,0.0041,0.0042,0.0043,0,-0.0362,-0.0378,-0.0405,-0.0413,-0.0415,-0.0423,-0.0411,-0.0404,-0.0362,-0.0343,-0.0301,-0.0261,-0.0205,-0.0186,-0.0079,-0.0106,-0.0048,-0.0,0.0004,0.0021,0.004,0.0056,0.0055,0.0054,0.0053,0.0052,0.0051,0,-0.0383,-0.0404,-0.0429,-0.0434,-0.044,-0.0447,-0.0447,-0.0418,-0.0411,-0.0366,-0.0353,-0.0277,-0.0243,-0.0158,-0.0067,-0.007,0.0048,0.0063,0.0108,0.0108,0.0124,0.0123,0.014,0.014,0.014,0.014,0.014,0,-0.0403,-0.0423,-0.0446,-0.0461,-0.0489,-0.0479,-0.0493,-0.0478,-0.0451,-0.0437,-0.0377,-0.0345,-0.0235,-0.0156,-0.007,0.0035,0.0051,0.0105,0.0128,0.0095,0.009,0.0128,0.0126,0.0142,0.0142,0.0141,0.0141,0,-0.042,-0.0435,-0.0469,-0.0492,-0.0504,-0.0524,-0.0538,-0.054,-0.0511,-0.0491,-0.048,-0.0392,-0.0288,-0.0178,-0.0037,0.0025,0.013,0.0164,0.0108,0.0126,0.0159,0.0153,0.0221,0.0221,0.0221,0.0222,0.0222,0,-0.043,-0.0452,-0.05,-0.0528,-0.0544,-0.0573,-0.0592,-0.0577,-0.0571,-0.0515,-0.0501,-0.0407,-0.0337,-0.0143,-0.0034,0.0125,0.0148,0.0193,0.0185,0.0153,0.0169,0.0163,0.0156,0.0222,0.0222,0.0222,0.0222,0,-0.0447,-0.0471,-0.0501,-0.0563,-0.0599,-0.0629,-0.0648,-0.0646,-0.0614,-0.0593,-0.0501,-0.0399,-0.0283,-0.0139,-0.0021,0.0094,0.0158,0.0195,0.0196,0.0189,0.0156,0.017,0.0163,0.0223,0.0223,0.0223,0.0223,0,-0.046,-0.049,-0.0538,-0.0587,-0.0638,-0.0665,-0.0672,-0.0649,-0.0634,-0.056,-0.053,-0.0396,-0.0317,-0.0155,-0.0042,0.0063,0.0091,0.0121,0.0125,0.0126,0.0074,0.0017,0.0063,0,0,0,0,0,-0.0468,-0.0505,-0.0556,-0.0609,-0.066,-0.0683,-0.0699,-0.0691,-0.066,-0.0597,-0.0557,-0.044,-0.0261,-0.0181,-0.0075,-0.0053,0.0092,0.0071,0.0124,0.0227,0.0226,0.018,0,0,0,0,0,0,-0.0475,-0.0528,-0.0555,-0.0615,-0.0651,-0.0697,-0.0705,-0.0684,-0.0635,-0.0588,-0.0486,-0.0425,-0.0249,-0.0319,-0.0075,-0.0044,0.0001,0.0158,0.016,0.0227,0.0227,0.0226,0.0179,0,0,0,0,0]}]]